Location: Angwan Shehu
(11.2514°N, 7.4613°E)
Time: 05:20:55
(UTC+00:00)

Courier 1B Rocket - All Passes

Search period start: 14 April 2021 00:00
Search period end: 24 April 2021 00:00
Orbit: 920 x 1202 km, 28.2° (Epoch: 12 April)

Date Brightness Start Highest point End Pass type
(mag) Time Alt. Az. Time Alt. Az. Time Alt. Az.
14 Apr - 00:10:42 10° NW 00:16:27 22° N 00:22:16 10° NE night (unlit)
14 Apr - 02:04:29 10° NW 02:11:34 36° NNE 02:18:30 10° E visible
14 Apr - 03:58:02 10° WNW 04:05:50 89° NNE 04:13:14 10° ESE visible
14 Apr - 05:53:12 10° W 05:59:26 28° SSW 06:05:22 10° SSE daylight
14 Apr - 17:25:14 10° SW 17:31:20 40° SSE 17:37:52 10° E daylight
14 Apr - 19:18:06 10° WSW 19:24:53 63° NNW 19:32:12 10° NE visible
14 Apr - 21:13:16 10° WNW 21:19:19 28° NNW 21:25:41 10° NE visible
14 Apr - 23:09:06 10° NW 23:14:36 21° N 23:20:14 10° NE night (unlit)
15 Apr - 01:03:18 10° NW 01:09:55 29° NNE 01:16:30 10° ENE visible
15 Apr - 02:56:41 10° NW 03:04:27 65° NNE 03:11:58 10° ESE visible
15 Apr - 04:51:03 10° W 04:58:15 43° SSW 05:05:04 10° SE visible
15 Apr - 06:50:20 10° SW 06:51:55 11° SSW 06:53:30 10° SSW daylight
15 Apr - 16:25:06 10° SSW 16:30:19 26° SSE 16:35:46 10° E daylight
15 Apr - 18:17:00 10° WSW 18:23:40 88° NNW 18:30:53 10° ENE visible
15 Apr - 20:11:29 10° W 20:17:44 34° NNW 20:24:23 10° NE visible
15 Apr - 22:07:20 10° NW 22:12:46 21° N 22:18:23 10° NE visible
16 Apr - 00:02:05 10° NW 00:08:09 25° N 00:14:19 10° ENE night (unlit)
16 Apr - 01:55:29 10° NW 02:02:59 48° NNE 02:10:23 10° E visible
16 Apr - 03:49:17 10° WNW 03:57:00 64° SSW 04:04:23 10° SE visible
16 Apr - 05:45:44 10° WSW 05:50:38 18° SSW 05:55:23 10° S daylight
16 Apr - 15:25:36 10° S 15:29:15 16° SSE 15:32:59 10° ESE daylight
16 Apr - 17:16:11 10° SW 17:22:34 63° SSE 17:29:25 10° ENE daylight
16 Apr - 19:09:53 10° W 19:16:18 44° NNW 19:23:10 10° NE visible
16 Apr - 21:05:30 10° WNW 21:11:00 23° N 21:16:45 10° NE visible
16 Apr - 23:00:46 10° NW 23:06:21 22° N 23:12:05 10° NE night (unlit)
17 Apr - 00:54:21 10° NW 01:01:25 37° NNE 01:08:31 10° E visible
17 Apr - 02:47:47 10° WNW 02:55:41 90° SSW 03:03:21 10° ESE visible
17 Apr - 04:42:57 10° W 04:49:23 29° SSW 04:55:35 10° SSE visible
17 Apr - 16:15:39 10° SW 16:21:33 40° SSE 16:27:45 10° E daylight
17 Apr - 18:08:32 10° WSW 18:15:00 60° NNW 18:21:58 10° NE visible
17 Apr - 20:03:40 10° WNW 20:09:20 26° NNW 20:15:21 10° NE visible
17 Apr - 21:59:19 10° NW 22:04:33 20° N 22:09:57 10° NE visible
17 Apr - 23:53:16 10° NW 23:59:46 29° NNE 00:06:24 10° ENE night (unlit)
18 Apr - 01:46:31 10° NW 01:54:17 66° NNE 02:02:00 10° ESE visible
18 Apr - 03:40:49 10° W 03:48:07 43° SSW 03:55:13 10° SE visible
18 Apr - 05:39:47 10° SW 05:41:56 11° SSW 05:44:04 10° SSW daylight
18 Apr - 15:15:30 10° SSW 15:20:34 25° SSE 15:25:46 10° E daylight
18 Apr - 17:07:26 10° WSW 17:13:51 86° NNW 17:20:43 10° ENE daylight
18 Apr - 19:01:56 10° W 19:07:49 32° NNW 19:14:06 10° NE visible
18 Apr - 20:57:43 10° NW 21:02:46 20° N 21:08:02 10° NE visible
18 Apr - 22:52:11 10° NW 22:58:03 24° NNE 23:04:07 10° ENE night (unlit)
19 Apr - 00:45:23 10° NW 00:52:48 49° NNE 01:00:20 10° E night (unlit)
19 Apr - 02:39:05 10° WNW 02:46:49 63° SSW 02:54:26 10° SE visible
19 Apr - 04:35:28 10° WSW 04:40:35 19° SSW 04:45:35 10° S visible
19 Apr - 14:15:57 10° S 14:19:32 16° SSE 14:23:09 10° ESE daylight
19 Apr - 16:06:37 10° SW 16:12:50 64° SSE 16:19:22 10° ENE daylight
19 Apr - 18:00:22 10° W 18:06:27 42° NNW 18:12:57 10° NE visible
19 Apr - 19:55:58 10° WNW 20:01:04 22° N 20:06:25 10° NE visible
19 Apr - 21:51:01 10° NW 21:56:19 21° N 22:01:49 10° NE visible
19 Apr - 23:44:22 10° NW 23:51:16 37° NNE 23:58:22 10° E night (unlit)
20 Apr - 01:37:40 10° WNW 01:45:28 88° SSW 01:53:19 10° ESE visible
20 Apr - 03:32:44 10° W 03:39:15 29° SSW 03:45:40 10° SSE visible
20 Apr - 15:06:03 10° SW 15:11:51 40° SSE 15:17:49 10° E daylight
20 Apr - 16:59:01 10° WSW 17:05:14 58° NNW 17:11:50 10° NE daylight
20 Apr - 18:54:11 10° WNW 18:59:28 25° NNW 19:05:03 10° NE visible
20 Apr - 20:49:43 10° NW 20:54:34 19° N 20:59:37 10° NE visible
20 Apr - 22:43:24 10° NW 22:49:40 29° NNE 22:56:11 10° ENE night (unlit)
21 Apr - 00:36:28 10° NW 00:44:05 68° NNE 00:51:53 10° ESE night (unlit)
21 Apr - 02:30:40 10° W 02:37:57 42° SSW 02:45:12 10° SE visible
21 Apr - 04:29:27 10° SW 04:31:53 12° SSW 04:34:19 10° SSW visible
21 Apr - 14:05:49 10° SSW 14:10:52 26° SSE 14:15:58 10° E daylight
21 Apr - 15:57:52 10° WSW 16:04:08 84° NNW 16:10:41 10° ENE daylight
21 Apr - 17:52:28 10° WNW 17:58:01 30° NNW 18:03:53 10° NE visible
21 Apr - 19:48:13 10° NW 19:52:51 19° N 19:57:42 10° NE visible
21 Apr - 21:42:27 10° NW 21:48:01 24° NNE 21:53:50 10° ENE visible
21 Apr - 23:35:26 10° NW 23:42:38 49° NNE 23:50:09 10° E night (unlit)
22 Apr - 01:29:01 10° WNW 01:36:37 62° SSW 01:44:20 10° SE visible
22 Apr - 03:25:19 10° WSW 03:30:28 19° SSW 03:35:35 10° S visible
22 Apr - 13:06:07 10° S 13:09:50 16° SSE 13:13:31 10° ESE daylight
22 Apr - 14:56:59 10° SW 15:03:08 65° SSE 15:09:27 10° ENE daylight
22 Apr - 16:50:52 10° W 16:56:42 39° NNW 17:02:51 10° NE daylight
22 Apr - 18:46:31 10° NW 18:51:13 20° N 18:56:07 10° NE visible
22 Apr - 20:41:26 10° NW 20:46:21 20° N 20:51:29 10° NE visible
22 Apr - 22:34:32 10° NW 22:41:10 37° NNE 22:48:08 10° E night (unlit)
23 Apr - 00:27:40 10° WNW 00:35:16 87° SSW 00:43:09 10° ESE night (unlit)
23 Apr - 02:22:40 10° W 02:29:06 28° SSW 02:35:34 10° SSE visible
23 Apr - 13:56:20 10° SW 14:02:11 41° SSE 14:08:02 10° E daylight
23 Apr - 15:49:27 10° WSW 15:55:32 55° NNW 16:01:51 10° NE daylight
23 Apr - 17:44:44 10° WNW 17:49:41 23° NNW 17:54:51 10° NE daylight
23 Apr - 19:40:14 10° NW 19:44:41 18° N 19:49:18 10° NE visible
23 Apr - 21:33:42 10° NW 21:39:38 28° NNE 21:45:54 10° ENE visible
23 Apr - 23:26:34 10° NW 23:33:55 68° NNE 23:41:40 10° ESE night (unlit)
